Regional Weather Roundup
Issued by NWS

Home | Current Version | Previous Version | Text Only | Print | Product List | Glossary On
Versions: 1 2 3 4 5 6 7 8 9 10 11 12 13 14 15 16 17 18 19 20 21 22 23 24 25 26 27 28 29 30 31 32 33 34 35 36 37 38 39 40 41 42 43 44 45 46 47 48 49 50
043
ASUS44 KJAN 181610
RWRMS

MISSISSIPPI HOURLY WEATHER ROUNDUP
NATIONAL WEATHER SERVICE JACKSON MS
1100 AM CDT FRI APR 18 2014

NOTE: "FAIR: INDICATES FEW OR NO CLOUDS BELOW 12,000 FEET WITH NO
SIGNIFICANT WEATHER AND/OR OBSTRUCTIONS TO VISIBILITY.

MSZ001>002-007>008-010>013-018>021-025>028-034>036-181700-
NORTHWEST MISSISSIPPI

CITY           SKY/WX    TMP DP  RH WIND       PRES   REMARKS
CLARKSDALE       N/A     66  55  68 CALM      30.25S
CLEVELAND      FAIR      67  57  69 E8        30.22S
GREENWOOD      MOSUNNY   65  54  67 VRB5      30.20F
GREENVILLE     CLOUDY    66  54  65 E8        30.20F
GRENADA        FAIR      63  52  67 E9        30.23F
OLIVE BRANCH   PTSUNNY   64  52  63 NE6       30.26R
OXFORD         PTSUNNY   63  48  59 CALM      30.26S
TUNICA         MOSUNNY   64  46  52 NE5       30.26R
$$

MSZ003>006-009-014>017-022>024-029>033-037>039-181700-
NORTHEAST MISSISSIPPI

CITY           SKY/WX    TMP DP  RH WIND       PRES   REMARKS
BELMONT        CLOUDY    59  48  67 SE8       30.27S
COLUMBUS AFB   CLOUDY    60  51  71 E9        30.25S
CORINTH        FAIR      66  46  48 SE9       30.25F
GOLDN TRIANGLE CLOUDY    61  48  63 E9        30.27S
STARKVILLE     CLOUDY    61  52  72 E7        30.23F
TUPELO         CLOUDY    65  49  56 SE9       30.25S
$$

MSZ040-058-181700-
CENTRAL MISSISSIPPI

CITY           SKY/WX    TMP DP  RH WIND       PRES   REMARKS
JACKSON INTL   CLOUDY    65  57  75 N10       30.19S
JACKSON HAWKNS CLOUDY    65  55  70 VRB7      30.19S
MERIDIAN KEY   CLOUDY    57  54  89 NE10      30.21R
MERIDIAN NAS   CLOUDY    58  53  84 NE9       30.22S
RAYMOND        CLOUDY    68  63  83 N6        30.19S
VICKSBURG      MOSUNNY   67  57  70 N6        30.19F
$$

MSZ059>079-181700-
SOUTH MISSISSIPPI

CITY           SKY/WX    TMP DP  RH WIND       PRES   REMARKS
BROOKHAVEN     CLOUDY    63  57  82 N8        30.19R
COLUMBIA       CLOUDY    63  59  88 MISG      30.14F
HATTIESBURG    CLOUDY    61  58  90 NE9       30.15R
MCCOMB         CLOUDY    67  57  70 N10       30.15R
NATCHEZ        MOSUNNY   66  57  72 NE7       30.17F
PINE BELT      CLOUDY    61  55  82 N12       30.16S
$$

MSZ080>082-181700-
COASTAL MISSISSIPPI

CITY           SKY/WX    TMP DP  RH WIND       PRES   REMARKS
BAY ST LOUIS   CLOUDY    63  54  72 N12G21    30.09S
BILOXI         PTSUNNY   67  62  84 NE14      30.06F
PASCAGOULA     CLOUDY    62  59  90 N16G23    30.07F
GULFPORT       CLOUDY    66  59  78 N13       30.06F
$$



USA.gov is the U.S. government's official web portal to all federal, state and local government web resources and services.